Find Starlink 32923

NORAD ID: 63097 Int'l Des: 2025-037 Owner: SPXS Country: US Constellation: starlink operational
LEOCIRCULAR

当前视图

正在加载3D地球...

About Starlink 32923

Starlink 32923 (NORAD 63097) is a starlink constellation satellite (v2 mini) launched Feb 23, 2025 by SPXS of US. It operates in LEO, CIRCULAR orbit with a mass of 730.00 kg.

即将过境

Passes for default location (London). Set your location on the main map for personalized predictions.

高度历史

Loading altitude history...

两行轨道根数

1 63097U 25037W 26263.30267851 .00010894 00000-0 38270-3 0 9998
2 63097 70.0005 221.3579 0002883 271.7240 88.3605 15.29592931 87812
Epoch: Sep 20, 2026 • Age: 29 hours

当前状态

高度 480.0 km
远地点 / 近地点 N/A
速度 7.63 km/s
星下点 22.33°N, 153.7°W
发射日期 Feb 23, 2025
运行时间 1.5 years
类型 internet

技术详情

分类 Payload
质量 730.00 kg
干质量 700.00 kg
长度 0.30 m
跨度 29.00 m
形状 ? Box + pan
制造商 SPXS
平台类型 Starlink V2M
阶段状态 In Orbit
所有者/国家 SPXS/US

Most Searched